Tracking 20083 objects as of 12-Dec-2019
HD Live streaming from Space Station
objects crossing your sky now

COSMOS 2251 DEB

Track COSMOS 2251 DEB now!
10-day predictions


NORAD ID: 34308
Int'l Code: 1993-036NE
Perigee: 633.2 km
Apogee: 702.6 km
Inclination: 74.0 °
Period: 98.0 minutes
Semi major axis: 7038 km
RCS: 0.0637 m2 (small)
Launch date: June 16, 1993
Source: Commonwealth of Independent States (former USSR) (CIS)
Launch site: PLESETSK MISSILE AND SPACE COMPLEX (PKMTR)

Note: This is SATELLITE DEBRIS
aabbcc
Your satellite tracking list
Your tracking list is empty




NASA's NSSDC Master Catalog

Two Line Element Set (TLE):
1 34308U 93036NE  19346.19590847  .00001346  00000-0  22536-3 0  9990
2 34308  73.9966  48.4939 0049267   8.7037  53.1774 14.70091020575031
Source of the keplerian elements: AFSPC